Location: *
(60.1759°S, 155.0663°W)
Time: 12:14:52
(UTC+00:00)

Meteor 1-27 Rocket - Pass Details

Date: 17 September 2019
Orbit: 829 x 911 km, 81.3° (Epoch: 20 October)

Event Time Altitude Azimuth Distance (km) Brightness Sun altitude
Rises 12:27:36 0° 198° (SSW) 3,513 7.4 -26.7°
Reaches altitude 10° 12:30:06 10° 194° (SSW) 2,581 6.7 -26.5°
Maximum altitude 12:35:55 58° 114° (ESE) 1,060 4.4 -26.1°
Drops below altitude 10° 12:41:47 10° 35° (NE) 2,604 6.1 -25.6°
Enters shadow 12:42:09 - 34° (NE) 2,736 6.2 -25.6°
